Location: Aldenham
(51.6667°N, 0.3500°W)
Time: 17:19:27
(UTC+00:00)

CZ-2D R/B - Pass Details

Date: 18 November 2025
Orbit: 525 x 597 km, 98.0° (Epoch: 10 December)

Event Time Altitude Azimuth Distance (km) Brightness Sun altitude
Rises 17:45:52 0° 153° (SSE) 2,797 6.8 -15.0°
Reaches altitude 10° 17:48:01 10° 150° (SSE) 1,911 5.9 -15.3°
Maximum altitude 17:52:07 60° 71° (ENE) 687 3.4 -15.9°
Drops below altitude 10° 17:56:17 10° 352° (N) 1,949 6.1 -16.6°
Sets 17:58:29 0° 349° (N) 2,859 7.0 -16.9°
